Location: Heisler
(52.6701°N, 112.2239°W)
Time: 14:15:57
(UTC+00:00)

Envisat - Pass Details

Date: 09 December 2021
Orbit: 764 x 766 km, 98.2° (Epoch: 26 January)

Event Time Altitude Azimuth Distance (km) Brightness Sun altitude
Rises 00:22:17 0° 194° (SSW) 3,222 6.9 -9.6°
Reaches altitude 10° 00:24:51 10° 205° (SSW) 2,301 6.3 -9.9°
Maximum altitude 00:29:17 30° 266° (W) 1,349 5.1 -10.5°
Drops below altitude 10° 00:33:46 10° 328° (NNW) 2,317 5.6 -11.2°
Sets 00:36:22 0° 339° (NNW) 3,248 6.2 -11.5°
